Overview Statistics Trail Chart Weather Telemetry Raw packets
 

This is the latest recevied weather packets stored in our database for station/object KG5MMT-15. If no packets are shown the sender has not sent any weather packets the latest 10 day(s).

<< 4 5 6 7 8 9 10 >>
Time Temp. Humidity Pressure Rain* Wind** Luminosity Snow
1788663159 20° C 61% 0 hPa 0 mm - - -
1788662886 20.56° C 59% 0 hPa 0 mm - - -
1788662559 20.56° C 57% 0 hPa 0 mm - - -
1788662259 20.56° C 57% 0 hPa 0 mm - - -
1788661959 20.56° C 56% 0 hPa 0 mm - - -
1788661659 21.11° C 58% 0 hPa 0 mm - - -
1788661359 21.11° C 57% 0 hPa 0 mm - - -
1788661059 21.11° C 57% 0 hPa 0 mm - - -
1788660759 21.67° C 56% 0 hPa 0 mm - - -
1788660459 21.67° C 55% 0 hPa 0 mm - - -
1788660159 22.22° C 54% 0 hPa 0 mm - - -
1788659859 21.67° C 54% 0 hPa 0 mm - - -
1788659559 22.22° C 53% 0 hPa 0 mm - - -
1788659259 22.22° C 54% 0 hPa 0 mm - - -
1788658959 22.22° C 53% 0 hPa 0 mm - - -
1788658659 22.78° C 52% 0 hPa 0 mm - - -
1788658359 22.78° C 52% 0 hPa 0 mm - - -
1788658059 22.78° C 51% 0 hPa 0 mm - - -
1788657759 22.78° C 50% 0 hPa 0 mm - - -
1788657459 22.78° C 50% 0 hPa 0 mm - - -
1788657159 23.33° C 49% 0 hPa 0 mm - - -
1788656859 23.33° C 47% 0 hPa 0 mm - - -
1788656565 22.78° C 48% 0 hPa 0 mm - - -
1788656259 22.78° C 53% 0 hPa 0 mm - - -
1788655959 22.78° C 53% 0 hPa 0 mm - - -

* Rain latest hour (hover to see other rain measurements)
** Current wind speed in m/s (hover to see current wind gust speed)